Home   Weather   Khanty-Mansiysk   Past weeks

Flag for Russia Past Weather in Khanty-Mansiysk, Russia — Yesterday and Last 2 Weeks

Now
1 °F

Clear.


Feels Like: -10 °F
Forecast: -1 / 4 °F
Wind: 6 mph from South

Location: Hanty-Mansijsk

Current Time: Jan 23, 2017 at 1:49:40 am

Latest Report: Jan 23, 2017 at 1:00 am


Visibility: 10 mi

Pressure: 29.24 "Hg

Humidity: 85%

Dew Point: -2 °F

Location of Khanty-MansiyskLocation

Past Weather in Khanty-Mansiysk — Graph

°F

Khanty-Mansiysk Temperature Yesterday

Maximum temperature yesterday: 18 °F (at 2:30 am)
Minimum temperature yesterday: 0 °F (at 11:30 pm)
Average temperature yesterday: 10 °F

High & Low Weather Summary for the Past Weeks

 TemperatureHumidityPressure
High18 °F (Jan 22, 2:30 am)93% (Jan 22, 2:00 am)30.42 "Hg (Jan 22, 2:00 am)
Low-36 °F (Jan 9, 8:30 pm)66% (Jan 8, 3:30 am)29.03 "Hg (Jan 21, 7:00 pm)
Average-7 °F79%30.02 "Hg
* Reported Jan 8 12:00 am — Jan 23 12:30 am, Khanty-Mansiysk, Weather by CustomWeather, © 2017

Note: Actual official high and low records may vary slightly from our data, if they occured in-between our weather recording intervals... More about our weather records

Advertising

Khanty-Mansiysk Weather History for the Previous 24 Hours

Scroll right to see more
 ConditionsComfort  
Time TempWeatherWind HumidityBarometerVisibility
12:30 am
Mon, Jan 23
1 °FClear.6 mph85%29.24 "Hg10 mi
12:00 am0 °FClear.6 mph84%29.24 "Hg10 mi
11:30 pm
Sun, Jan 22
0 °FClear.8 mph84%29.24 "Hg10 mi
11:00 pm1 °FPassing clouds.6 mph78%29.24 "HgN/A
10:30 pm1 °FPassing clouds.8 mph85%29.27 "HgN/A
10:00 pm1 °FPassing clouds.8 mph85%29.27 "HgN/A
9:30 pm1 °FPassing clouds.13 mph85%29.27 "HgN/A
9:00 pm1 °FPassing clouds.13 mph85%29.27 "Hg4 mi
8:30 pm3 °FPassing clouds.13 mph78%29.27 "Hg4 mi
8:00 pm3 °FPassing clouds.13 mph85%29.27 "Hg2 mi
7:30 pm3 °FPassing clouds.13 mph85%29.27 "Hg6 mi
7:00 pm3 °FClear.10 mph85%29.27 "Hg10 mi
6:30 pm3 °FClear.8 mph85%29.27 "Hg10 mi
6:00 pm5 °FClear.8 mph85%29.27 "Hg6 mi
5:30 pm5 °FPassing clouds.8 mph85%29.27 "HgN/A
5:00 pm7 °FPassing clouds.10 mph78%29.27 "HgN/A
4:30 pm7 °FPassing clouds.8 mph85%29.27 "HgN/A
4:00 pm9 °FScattered clouds.8 mph78%29.27 "Hg6 mi
3:30 pm9 °FSnow flurries. Scattered clouds.13 mph85%29.27 "Hg6 mi
3:00 pm10 °FScattered clouds.13 mph85%29.27 "HgN/A
2:30 pm10 °FSnow flurries. Partly sunny.13 mph85%29.24 "Hg3 mi
1:30 pm12 °FSnow flurries. Partly sunny.13 mph85%29.24 "Hg2 mi
1:00 pm12 °FSnow flurries. Partly sunny.13 mph85%29.24 "Hg3 mi
12:30 pm14 °FSnow flurries. Partly sunny.13 mph79%29.24 "Hg3 mi
12:00 pm12 °FSnow flurries. Partly sunny.13 mph85%29.21 "Hg2 mi
11:30 am14 °FSnow flurries. Partly sunny.10 mph85%29.21 "Hg2 mi
11:00 am14 °FSnow flurries. Scattered clouds.10 mph79%29.21 "Hg2 mi
10:00 am12 °FSnow flurries. Partly sunny.10 mph85%29.18 "Hg5 mi
9:00 am12 °FSnow flurries. Passing clouds.13 mph85%29.15 "Hg5 mi
8:30 am12 °FSnow flurries. Passing clouds.15 mph85%29.15 "Hg2 mi
7:30 am12 °FSnow flurries. Passing clouds.13 mph85%29.15 "Hg6 mi
7:00 am14 °FSnow flurries. Passing clouds.15 mph79%29.15 "Hg3 mi
6:30 am14 °FSnow flurries. Passing clouds.13 mph85%29.12 "Hg5 mi
6:00 am14 °FSnow flurries. Passing clouds.13 mph85%29.12 "Hg2 mi
5:30 am16 °FSnow flurries. Passing clouds.13 mph86%29.12 "Hg5 mi
5:00 am16 °FSnow flurries. Passing clouds.13 mph86%29.12 "Hg5 mi
4:30 am16 °FSnow flurries. Passing clouds.10 mph86%29.09 "Hg4 mi
4:00 am16 °FSnow flurries. Passing clouds.10 mph93%29.09 "Hg2 mi
3:30 am18 °FSnow flurries. Passing clouds.13 mph86%29.09 "Hg1 mi
3:00 am18 °FSnow flurries. Passing clouds.13 mph86%29.06 "Hg2 mi
2:30 am18 °FSnow flurries. Passing clouds.13 mph86%29.06 "Hg3 mi
2:00 am16 °FSnow flurries. Passing clouds.8 mph93%29.06 "Hg4 mi
1:30 am16 °FSnow flurries. Passing clouds.6 mph86%29.06 "Hg2 mi
1:00 am14 °FSnow flurries. Passing clouds.6 mph92%29.06 "HgN/A
Weather by CustomWeather, © 2017

See weather overviewHow to use our weather pages